Starlink 5310

operational
NORAD ID: 55272 Int'l Des: 2023-010 Owner: SPXS Country: US Constellation: starlink
LEOCIRCULAR

Starlink 5310について

説明を読み込み中...

リアルタイム位置

3D地球を読み込み中...

次回通過

高度履歴

Altitude vs Time

uPlot chart will show altitude changes over time

軌道要素

1 55272U 23010D 26036.69756584 -.00000219 00000-0 -10551-4 0 9994
2 55272 70.0005 125.1337 0003143 272.7620 87.3180 14.98339041167995
Epoch: Feb 5, 2026 • Age: 13 hours

現在のステータス

高度 584.6 km
速度 7.57 km/s
衛星直下点 -38.52°S, 109.93°W
打ち上げ日 Jan 19, 2023
運用期間 3 years
タイプ internet

技術仕様

分類 Payload
質量 305.00 kg
乾燥質量 290.00 kg
総質量 305.00 kg
長さ 0.20 m
直径 2.80 m
スパン 9.00 m
形状 Box + pan
製造者 SPXS
バスタイプ Starlink
フェーズステータス In Orbit
所有者/国 SPXS/US

大規模コンステレーション

Loading constellations...